Weather History for KDVO - July, 2013

Change the Weather History Date:

Tuesday, July 23, 2013

  Actual Average (KAPC) Record (KAPC)
Temperature  
Mean Temperature 70 °F 65 °F  
Max Temperature 82 °F 78 °F 102 °F (2006)
Min Temperature 57 °F 53 °F 48 °F (2000)
Degree Days  
Heating Degree Days 0    
Month to date heating degree days  
Since 1 June heating degree days  
Since 1 July heating degree days  
Cooling Degree Days 6    
Month to date cooling degree days  
Year to date cooling degree days  
Since 1 June cooling degree days  
Growing Degree Days 20 (Base 50)    
Moisture  
Dew Point 57 °F    
Average Humidity 70    
Maximum Humidity 100    
Minimum Humidity 32    
Precipitation  
Precipitation 0.00 in - 0.00 in (2015)
Month to date precipitation  
Year to date precipitation  
Since 1 July precipitation  
Sea Level Pressure  
Sea Level Pressure 29.98 in    
Wind  
Wind Speed 6 mph (NNE)    
Max Wind Speed 15 mph    
Max Gust Speed 18 mph    
Visibility 10 miles    
Events      
T = Trace of Precipitation, MM = Missing Value Source: NWS Daily Summary

Daily Weather History Graph

Daily Weather History Graph

Search for Another Location

Airport or City:

Trip Planner

Search our weather history database for the weather conditions in past years. The results will help you decide how hot, cold, wet, or windy it might be!

Date:

Astronomy

Jul. 23, 2013 Rise Set
Actual Time 6:05 AM PDT 8:27 PM PDT
Civil Twilight 5:35 AM PDT 8:57 PM PDT
Nautical Twilight 4:58 AM PDT 9:34 PM PDT
Astronomical Twilight 4:17 AM PDT 10:14 PM PDT
Moon 9:01 PM PDT (7/23) 7:18 AM PDT (7/23)
Length of Visible Light 15h 21m
Length of Day
14h 21m
Full, 98% of the Moon is Illuminated
Jul 23
Full
Jul 29
Last Quarter
Aug 6
New
Aug 14
First Quarter
Aug 20
Full

Hourly Weather History & Observations

Time (PDT) Temp. Heat Index Dew Point Humidity Pressure Visibility Wind Dir Wind Speed Gust Speed Precip Events Conditions
12:15 AM 62.6 °F - 55.4 °F 77% 29.97 in 10.0 mi NNW 9.2 mph - N/A   Clear
12:35 AM 62.6 °F - 55.4 °F 77% 29.97 in 10.0 mi Calm Calm - N/A   Clear
12:55 AM 64.4 °F - 55.4 °F 73% 29.97 in 10.0 mi SSE 3.5 mph - N/A   Clear
1:15 AM 62.6 °F - 55.4 °F 77% 29.96 in 10.0 mi Calm Calm - N/A   Clear
1:35 AM 60.8 °F - 55.4 °F 82% 29.96 in 10.0 mi Calm Calm - N/A   Clear
1:55 AM 62.6 °F - 55.4 °F 77% 29.98 in 10.0 mi SE 4.6 mph - N/A   Clear
2:15 AM 62.6 °F - 55.4 °F 77% 29.97 in 10.0 mi Calm Calm - N/A   Clear
2:35 AM 62.6 °F - 55.4 °F 77% 29.95 in 10.0 mi Calm Calm - N/A   Clear
2:55 AM 60.8 °F - 57.2 °F 88% 29.95 in 10.0 mi NE 8.1 mph - N/A   Clear
3:15 AM 60.8 °F - 57.2 °F 88% 29.96 in 10.0 mi NE 3.5 mph - N/A   Clear
3:35 AM 60.8 °F - 57.2 °F 88% 29.95 in 10.0 mi Calm Calm - N/A   Clear
3:55 AM 60.8 °F - 57.2 °F 88% 29.94 in 10.0 mi NE 4.6 mph - N/A   Clear
4:15 AM 59.0 °F - 57.2 °F 94% 29.95 in 10.0 mi East 6.9 mph - N/A   Clear
4:35 AM 60.8 °F - 57.2 °F 88% 29.97 in 10.0 mi NE 6.9 mph - N/A   Clear
4:55 AM 59.0 °F - 57.2 °F 94% 29.99 in 10.0 mi NNE 5.8 mph - N/A   Clear
5:15 AM 59.0 °F - 57.2 °F 94% 29.98 in 10.0 mi Calm Calm - N/A   Clear
5:35 AM 59.0 °F - 57.2 °F 94% 29.99 in 10.0 mi East 4.6 mph - N/A   Partly Cloudy
5:55 AM 59.0 °F - 57.2 °F 94% 29.99 in 10.0 mi ENE 3.5 mph - N/A   Clear
6:15 AM 59.0 °F - 57.2 °F 94% 29.99 in 10.0 mi NNW 4.6 mph - N/A   Clear
6:35 AM 59.0 °F - 57.2 °F 94% 29.99 in 10.0 mi NNW 4.6 mph - N/A   Clear
6:55 AM 59.0 °F - 57.2 °F 94% 29.99 in 10.0 mi North 8.1 mph - N/A   Clear
7:15 AM 59.0 °F - 57.2 °F 94% 29.99 in 10.0 mi North 6.9 mph - N/A   Clear
7:35 AM 60.8 °F - 57.2 °F 88% 29.99 in 10.0 mi North 3.5 mph - N/A   Clear
7:55 AM 62.6 °F - 55.4 °F 77% 29.99 in 10.0 mi Calm Calm - N/A   Clear
8:15 AM 64.4 °F - 57.2 °F 77% 30.00 in 10.0 mi Calm Calm - N/A   Clear
8:35 AM 64.4 °F - 57.2 °F 77% 30.00 in 10.0 mi NNE 5.8 mph - N/A   Clear
8:55 AM 64.4 °F - 57.2 °F 77% 30.00 in 10.0 mi Calm Calm - N/A   Clear
9:15 AM 66.2 °F - 57.2 °F 73% 29.99 in 10.0 mi NNE 5.8 mph - N/A   Clear
9:35 AM 68.0 °F - 57.2 °F 68% 29.99 in 10.0 mi NNE 6.9 mph - N/A   Clear
9:55 AM 69.8 °F - 57.2 °F 64% 30.00 in 10.0 mi ENE 5.8 mph - N/A   Clear
10:15 AM 71.6 °F - 57.2 °F 60% 30.00 in 10.0 mi SE 3.5 mph - N/A   Clear
10:35 AM 73.4 °F - 57.2 °F 57% 30.00 in 10.0 mi South 3.5 mph - N/A   Clear
10:55 AM 75.2 °F - 57.2 °F 53% 30.01 in 10.0 mi SE 5.8 mph - N/A   Clear
11:15 AM 73.4 °F - 59.0 °F 61% 30.01 in 10.0 mi SE 4.6 mph - N/A   Clear
11:35 AM 73.4 °F - 59.0 °F 61% 30.00 in 10.0 mi ESE 4.6 mph - N/A   Clear
11:55 AM 75.2 °F - 57.2 °F 53% 30.00 in 10.0 mi Calm Calm - N/A   Clear
12:15 PM 77.0 °F - 57.2 °F 50% 30.00 in - South 3.5 mph - N/A   Clear
12:35 PM 77.0 °F - 57.2 °F 50% 30.00 in - Calm Calm - N/A   Partly Cloudy
1:15 PM 78.8 °F - 57.2 °F 47% 29.99 in - NE 9.2 mph - N/A   Clear
1:35 PM 80.6 °F 80.8 °F 57.2 °F 45% 29.99 in - North 8.1 mph - N/A   Partly Cloudy
1:55 PM 80.6 °F 80.8 °F 57.2 °F 45% 29.99 in - North 11.5 mph - N/A   Partly Cloudy
2:15 PM 78.8 °F - 57.2 °F 47% 29.99 in - NE 10.4 mph - N/A   Partly Cloudy
2:35 PM 80.6 °F 80.8 °F 57.2 °F 45% 29.98 in - North 10.4 mph - N/A   Partly Cloudy
2:55 PM 80.6 °F 80.5 °F 55.4 °F 42% 29.97 in - NW 10.4 mph 18.4 mph N/A   Clear
3:15 PM 80.6 °F 80.5 °F 55.4 °F 42% 29.98 in - North 10.4 mph - N/A   Clear
3:35 PM 82.4 °F - 50.0 °F 32% 29.97 in - WNW 6.9 mph - N/A   Partly Cloudy
3:55 PM 82.4 °F - 50.0 °F 32% 29.97 in - NW 5.8 mph - N/A   Clear
4:15 PM 80.6 °F 80.3 °F 53.6 °F 39% 29.97 in - NW 9.2 mph - N/A   Clear
4:35 PM 78.8 °F - 57.2 °F 47% 29.96 in - North 11.5 mph - N/A   Clear
4:55 PM 78.8 °F - 57.2 °F 47% 29.96 in - North 11.5 mph - N/A   Clear
5:15 PM 78.8 °F - 57.2 °F 47% 29.96 in - North 9.2 mph - N/A   Clear
5:35 PM 77.0 °F - 57.2 °F 50% 29.95 in - North 15.0 mph - N/A   Clear
5:55 PM 77.0 °F - 55.4 °F 47% 29.95 in 10.0 mi North 13.8 mph - N/A   Clear
6:15 PM 75.2 °F - 57.2 °F 53% 29.96 in 10.0 mi North 11.5 mph - N/A   Clear
6:35 PM 73.4 °F - 55.4 °F 53% 29.96 in 10.0 mi NNE 8.1 mph - N/A   Clear
6:55 PM 73.4 °F - 57.2 °F 57% 29.96 in 10.0 mi NNE 8.1 mph - N/A   Clear
7:15 PM 69.8 °F - 57.2 °F 64% 29.96 in 10.0 mi NE 6.9 mph - N/A   Clear
7:35 PM 68.0 °F - 57.2 °F 68% 29.96 in 10.0 mi North 8.1 mph - N/A   Clear
7:55 PM 68.0 °F - 57.2 °F 68% 29.96 in 10.0 mi North 8.1 mph - N/A   Clear
8:15 PM 66.2 °F - 57.2 °F 73% 29.96 in 10.0 mi North 11.5 mph - N/A   Clear
8:35 PM 64.4 °F - 57.2 °F 77% 29.96 in 10.0 mi North 11.5 mph - N/A   Clear
8:55 PM 64.4 °F - 57.2 °F 77% 29.97 in 10.0 mi North 10.4 mph - N/A   Clear
9:15 PM 62.6 °F - 57.2 °F 82% 29.97 in 10.0 mi North 9.2 mph - N/A   Clear
9:35 PM 62.6 °F - 55.4 °F 77% 29.97 in 10.0 mi North 10.4 mph - N/A   Clear
9:55 PM 60.8 °F - 57.2 °F 88% 29.98 in 10.0 mi North 9.2 mph - N/A   Clear
10:15 PM 60.8 °F - 55.4 °F 82% 29.98 in 10.0 mi North 9.2 mph - N/A   Clear
10:35 PM 59.0 °F - 55.4 °F 88% 29.98 in 10.0 mi North 8.1 mph - N/A   Clear
10:55 PM 59.0 °F - 55.4 °F 88% 29.98 in 10.0 mi North 10.4 mph - N/A   Clear
11:15 PM 59.0 °F - 55.4 °F 88% 29.99 in 10.0 mi North 9.2 mph - N/A   Clear
11:35 PM 59.0 °F - 55.4 °F 88% 29.99 in 10.0 mi North 9.2 mph - N/A   Clear
11:55 PM 57.2 °F - 57.2 °F 100% 29.99 in 10.0 mi North 6.9 mph - N/A   Clear